Date,TemperatureHighF,TemperatureAvgF,TemperatureLowF,DewpointHighF,DewpointAvgF,DewpointLowF,HumidityHigh,HumidityAvg,HumidityLow,PressureMaxIn,PressureMinIn,WindSpeedMaxMPH,WindSpeedAvgMPH,GustSpeedMaxMPH,PrecipitationSumIn
2012-12-1,46,36,25,39,32,23,100,85,75,30.36,30.25,14,7,0,0.00
2012-12-2,54,46,40,50,42,36,93,84,77,30.22,29.97,17,11,0,0.00
2012-12-3,51,45,42,44,40,39,92,84,73,30.26,30.14,7,3,0,0.00
2012-12-4,68,59,48,57,51,44,100,78,47,30.12,29.90,11,9,0,0.00
2012-12-5,44,35,29,38,26,18,84,71,60,30.33,30.02,13,9,0,0.00
2012-12-6,36,30,24,26,15,-100,86,62,53,30.38,30.07,14,7,0,0.00
2012-12-7,37,36,33,37,32,23,100,87,65,30.06,29.97,11,7,0,0.00
2012-12-8,50,40,38,45,40,38,100,97,86,29.93,29.79,8,6,0,0.00
2012-12-9,40,35,32,38,30,27,93,83,77,30.28,29.86,18,6,0,0.00
2012-12-10,39,38,36,36,35,34,92,89,86,29.72,29.67,7,5,0,0.00
2012-12-11,32,30,28,30,28,26,96,90,84,30.16,29.80,6,3,0,0.00
2012-12-12,41,35,31,26,25,24,80,69,52,30.38,30.20,8,4,0,0.00
2012-12-13,43,36,30,28,24,22,79,64,44,30.43,30.23,8,5,0,0.00
2012-12-14,44,37,28,32,27,20,81,69,50,30.26,30.15,9,5,0,0.00
2012-12-15,40,36,32,33,32,31,98,83,71,30.31,30.05,10,5,0,0.00
2012-12-16,47,44,41,42,38,32,93,78,69,29.98,29.80,17,13,0,0.00
2012-12-17,48,44,42,45,43,41,100,95,87,29.79,29.64,12,9,0,0.00
2012-12-18,43,41,39,43,38,31,100,91,73,29.71,29.50,11,7,0,0.00
2012-12-19,41,36,32,32,29,26,89,75,58,30.19,29.76,10,8,0,0.00
2012-12-20,38,33,26,34,26,23,94,76,59,30.19,29.56,19,10,0,0.00
2012-12-21,38,34,32,37,32,30,100,93,86,29.42,29.20,12,6,0,0.00
2012-12-22,31,28,25,26,22,19,98,80,65,29.88,29.42,20,15,0,0.00
2012-12-23,37,32,29,26,23,21,89,70,54,29.96,29.81,10,7,0,0.00
2012-12-24,33,30,28,29,22,19,100,73,59,30.06,29.89,8,5,0,0.00
2012-12-25,28,27,24,28,24,21,100,89,78,30.31,29.93,7,4,0,0.00
2012-12-26,24,20,17,24,17,12,100,88,79,30.33,29.77,14,6,0,0.00
2012-12-27,26,23,22,25,22,20,100,93,85,29.99,29.69,13,9,0,0.00
2012-12-28,27,25,22,24,22,19,100,87,78,30.12,30.04,9,5,0,0.00
2012-12-29,27,25,23,27,24,21,100,98,93,29.96,29.66,10,5,0,0.00
2012-12-30,26,24,21,21,17,14,91,74,64,30.21,29.84,15,10,0,0.00
2012-12-31,36,31,23,27,21,17,78,68,52,30.13,29.84,10,7,0,0.00